GW5895 Weather Reports


time (UTC)temp
C
wind
direction
speed
KPH
gust
KPH
rain 1hr
cm
rain 24hr
cm
rain mn
cm
humidity
%
barometer
mb
20260906053354 23 131 0.0 0.0 0.00 0.00 0.00 88 1014.7
20260906052850 23 134 0.0 0.0 0.00 0.00 0.00 88 1014.8
20260906052346 23 134 1.6 1.6 0.00 0.00 0.00 87 1014.7
20260906051843 23 134 0.0 1.6 0.00 0.00 0.00 87 1014.8
20260906051342 23 134 1.6 1.6 0.00 0.00 0.00 86 1014.7
20260906050838 23 135 0.0 1.6 0.00 0.00 0.00 86 1014.6
20260906050333 23 135 0.0 0.0 0.00 0.00 0.00 86 1014.8
20260906045832 23 135 0.0 1.6 0.00 0.00 0.00 86 1014.9
20260906045326 23 135 0.0 0.0 0.00 0.00 0.00 86 1014.7
20260906044822 23 139 1.6 1.6 0.00 0.00 0.00 86 1014.7
20260906044317 23 139 0.0 0.0 0.00 0.00 0.00 86 1014.7
20260906043813 23 168 0.0 0.0 0.00 0.00 0.00 86 1014.6
20260906043309 23 139 0.0 0.0 0.00 0.00 0.00 87 1014.8
20260906042808 23 139 0.0 0.0 0.00 0.00 0.00 87 1014.8
20260906042307 23 104 0.0 1.6 0.00 0.00 0.00 87 1014.4
20260906041803 23 113 1.6 1.6 0.00 0.00 0.00 87 1014.4
20260906041258 23 128 1.6 1.6 0.00 0.00 0.00 88 1014.6
20260906040753 23 135 0.0 1.6 0.00 0.00 0.00 88 1014.5
20260906040249 23 136 0.0 0.0 0.00 0.00 0.00 88 1014.4
20260906035744 24 139 0.0 0.0 0.00 0.00 0.00 88 1014.5
20260906035240 24 139 0.0 0.0 0.00 0.00 0.00 88 1014.5
20260906034739 24 139 0.0 0.0 0.00 0.00 0.00 88 1014.3
20260906034234 24 127 1.6 3.2 0.00 0.00 0.00 88 1014.4
20260906033730 24 164 1.6 1.6 0.00 0.00 0.00 88 1014.3
20260906033229 24 160 0.0 0.0 0.00 0.00 0.00 87 1014.3
20260906032726 24 169 0.0 0.0 0.00 0.00 0.00 87 1014.4
20260906032226 24 127 0.0 1.6 0.00 0.00 0.00 87 1014.4
20260906031721 24 128 0.0 0.0 0.00 0.00 0.00 88 1014.5
20260906031217 24 128 0.0 0.0 0.00 0.00 0.00 88 1014.2
20260906030717 24 128 0.0 0.0 0.00 0.00 0.00 87 1014.1
20260906030212 24 128 0.0 0.0 0.00 0.00 0.00 87 1014.0
20260906025711 25 128 0.0 1.6 0.00 0.00 0.00 87 1014.2
20260906025206 25 139 0.0 0.0 0.00 0.00 0.00 86 1014.3
20260906024700 25 139 0.0 0.0 0.00 0.00 0.00 86 1014.1
20260906024159 25 139 0.0 0.0 0.00 0.00 0.00 86 1014.1
20260906023655 25 139 1.6 1.6 0.00 0.00 0.00 87 1014.0
20260906023155 25 139 0.0 0.0 0.00 0.00 0.00 87 1014.0
20260906022650 25 139 0.0 0.0 0.00 0.00 0.00 87 1014.0
20260906022146 25 139 0.0 0.0 0.00 0.00 0.00 87 1013.7
20260906021642 25 138 0.0 0.0 0.00 0.00 0.00 87 1013.6
20260906021140 25 155 0.0 0.0 0.00 0.00 0.00 86 1013.7
20260906020635 25 59 0.0 0.0 0.00 0.00 0.00 86 1013.8
20260906020130 25 59 0.0 1.6 0.00 0.00 0.00 85 1013.6
20260906015630 25 59 0.0 1.6 0.00 0.00 0.00 85 1013.7
20260906015129 25 63 1.6 3.2 0.00 0.00 0.00 84 1013.7
20260906014628 25 64 0.0 1.6 0.00 0.00 0.00 83 1013.4
20260906014125 25 60 1.6 3.2 0.00 0.00 0.00 80 1013.3
20260906013620 25 60 0.0 0.0 0.00 0.00 0.00 79 1013.3
20260906013116 25 60 0.0 0.0 0.00 0.00 0.00 79 1013.1
20260906012610 26 60 0.0 0.0 0.00 0.00 0.00 78 1013.0
20260906012105 25 60 0.0 0.0 0.00 0.00 0.00 78 1012.8
20260906011601 25 60 0.0 0.0 0.00 0.00 0.00 77 1012.8
20260906011100 26 60 0.0 0.0 0.00 0.00 0.00 76 1012.8
20260906010556 26 60 0.0 0.0 0.00 0.00 0.00 74 1012.9
20260906010052 25 60 0.0 0.0 0.00 0.00 0.00 75 1012.7
20260906005551 26 60 0.0 0.0 0.00 0.00 0.00 75 1012.8
20260906005050 26 60 0.0 0.0 0.00 0.00 0.00 73 1012.8
20260906004550 26 60 0.0 0.0 0.00 0.00 0.00 73 1012.8
20260906004045 25 60 0.0 0.0 0.00 0.00 0.00 75 1012.8
20260906003540 26 60 0.0 0.0 0.00 0.00 0.00 76 1012.4
20260906003037 26 60 0.0 0.0 0.00 0.00 0.00 77 1012.3
20260906002536 26 60 0.0 0.0 0.00 0.00 0.00 76 1012.2
20260906002031 26 60 0.0 0.0 0.00 0.00 0.00 75 1012.1
20260906001527 26 60 0.0 0.0 0.00 0.00 0.00 74 1012.2
20260906001027 26 60 0.0 0.0 0.00 0.00 0.00 74 1012.2
20260906000523 26 60 0.0 0.0 0.00 0.00 0.00 74 1012.2
20260906000018 26 60 0.0 0.0 0.00 0.00 0.00 73 1012.3
20260905235517 27 60 0.0 0.0 0.00 0.00 0.00 73 1012.3
20260905235013 27 60 0.0 0.0 0.00 0.00 0.00 73 1012.3
20260905234508 27 60 0.0 0.0 0.00 0.00 0.00 74 1012.0
20260905234002 27 60 0.0 0.0 0.00 0.00 0.00 75 1012.2
20260905233457 27 60 0.0 0.0 0.00 0.00 0.00 75 1012.2
20260905232956 27 60 0.0 0.0 0.00 0.00 0.00 75 1012.4
20260905232452 27 60 0.0 0.0 0.00 0.00 0.00 74 1012.3
20260905231948 27 60 0.0 1.6 0.00 0.00 0.00 74 1012.6
20260905231444 27 60 1.6 1.6 0.00 0.00 0.00 74 1012.3
20260905230940 27 60 1.6 1.6 0.00 0.00 0.00 74 1012.5
20260905230438 27 60 0.0 1.6 0.00 0.00 0.00 72 1012.6
20260905225937 28 60 1.6 1.6 0.00 0.00 0.00 72 1012.5
20260905225432 28 61 0.0 1.6 0.00 0.00 0.00 70 1012.4
20260905224927 28 62 0.0 0.0 0.00 0.00 0.00 69 1012.5
20260905224423 29 58 1.6 3.2 0.00 0.00 0.00 68 1012.2
20260905223922 31 90 3.2 3.2 0.00 0.00 0.00 68 1012.0
20260905223420 31 227 0.0 0.0 0.00 0.00 0.00 66 1011.8
20260905222920 31 220 0.0 0.0 0.00 0.00 0.00 65 1011.6
20260905222420 31 216 1.6 1.6 0.00 0.00 0.00 66 1011.5
20260905221916 31 174 1.6 1.6 0.00 0.00 0.00 64 1011.5
20260905221412 31 244 1.6 3.2 0.00 0.00 0.00 64 1011.4
20260905220908 31 221 0.0 0.0 0.00 0.00 0.00 65 1011.5
20260905220404 31 221 1.6 1.6 0.00 0.00 0.00 65 1011.9
20260905215903 31 220 0.0 0.0 0.00 0.00 0.00 66 1011.7
20260905215359 31 221 0.0 0.0 0.00 0.00 0.00 67 1011.9
20260905214855 31 220 0.0 0.0 0.00 0.00 0.00 67 1011.7
20260905214350 31 220 0.0 0.0 0.00 0.00 0.00 67 1011.4
20260905213845 31 220 0.0 0.0 0.00 0.00 0.00 67 1011.4
20260905213342 31 220 0.0 0.0 0.00 0.00 0.00 68 1011.6
20260905212841 30 220 0.0 0.0 0.00 0.00 0.00 67 1012.0
20260905212336 30 220 0.0 0.0 0.00 0.00 0.00 67 1011.7
20260905211835 30 220 0.0 0.0 0.00 0.00 0.00 66 1011.5
20260905211331 31 220 0.0 0.0 0.00 0.00 0.00 67 1011.5
20260905210828 31 220 0.0 0.0 0.00 0.00 0.00 64 1011.7
20260905210328 31 220 0.0 1.6 0.00 0.00 0.00 63 1011.8
20260905205827 32 221 0.0 0.0 0.00 0.00 0.00 61 1011.8
20260905205327 32 221 0.0 0.0 0.00 0.00 0.00 63 1011.9
20260905204826 32 221 0.0 0.0 0.00 0.00 0.00 60 1012.0
20260905204322 32 222 0.0 0.0 0.00 0.00 0.00 61 1012.1
20260905203821 32 221 0.0 0.0 0.00 0.00 0.00 63 1012.0
20260905203317 32 221 0.0 0.0 0.00 0.00 0.00 61 1011.9
20260905202812 32 221 0.0 0.0 0.00 0.00 0.00 60 1012.1
20260905202307 32 221 0.0 0.0 0.00 0.00 0.00 60 1012.0
20260905201803 32 221 0.0 0.0 0.00 0.00 0.00 58 1012.2
20260905201258 33 222 0.0 0.0 0.00 0.00 0.00 58 1012.3
20260905200753 34 213 0.0 0.0 0.00 0.00 0.00 54 1012.2
20260905200249 34 224 1.6 1.6 0.00 0.00 0.00 53 1012.3
20260905195746 34 193 1.6 1.6 0.00 0.00 0.00 54 1012.2
20260905195242 35 196 0.0 0.0 0.00 0.00 0.00 52 1012.2
20260905194737 35 212 0.0 0.0 0.00 0.00 0.00 51 1012.2
20260905194237 34 233 0.0 0.0 0.00 0.00 0.00 53 1012.3
20260905193736 34 174 0.0 0.0 0.00 0.00 0.00 53 1012.2
20260905193231 34 227 0.0 0.0 0.00 0.00 0.00 53 1012.2
20260905192727 33 212 0.0 0.0 0.00 0.00 0.00 55 1012.4
20260905192223 35 212 1.6 1.6 0.00 0.00 0.00 52 1012.6
20260905191722 35 210 0.0 1.6 0.00 0.00 0.00 51 1012.5
20260905191220 35 219 0.0 0.0 0.00 0.00 0.00 51 1012.6
20260905190719 34 202 0.0 0.0 0.00 0.00 0.00 53 1012.7
20260905190218 35 246 1.6 3.2 0.00 0.00 0.00 51 1012.8
20260905185718 34 216 0.0 0.0 0.00 0.00 0.00 52 1012.7
20260905185212 34 172 0.0 0.0 0.00 0.00 0.00 52 1012.8
20260905184707 34 172 0.0 1.6 0.00 0.00 0.00 54 1012.8
20260905184206 35 215 1.6 1.6 0.00 0.00 0.00 51 1013.0
20260905183659 35 190 0.0 1.6 0.00 0.00 0.00 49 1013.0
20260905183155 35 200 0.0 1.6 0.00 0.00 0.00 48 1013.3
20260905182654 34 178 0.0 0.0 0.00 0.00 0.00 51 1013.3
20260905182154 34 201 0.0 0.0 0.00 0.00 0.00 49 1013.4
20260905181650 35 195 0.0 1.6 0.00 0.00 0.00 50 1013.4
20260905181148 35 198 0.0 0.0 0.00 0.00 0.00 50 1013.2
20260905180643 35 178 0.0 0.0 0.00 0.00 0.00 50 1013.4
20260905180139 34 197 1.6 1.6 0.00 0.00 0.00 51 1013.3
20260905175637 33 182 0.0 0.0 0.00 0.00 0.00 52 1013.5
20260905175133 33 182 0.0 0.0 0.00 0.00 0.00 50 1013.5
20260905174629 33 227 0.0 1.6 0.00 0.00 0.00 51 1013.6
20260905174124 33 205 0.0 1.6 0.00 0.00 0.00 50 1013.7
20260905173620 33 192 0.0 0.0 0.00 0.00 0.00 52 1013.7
20260905173116 33 206 0.0 0.0 0.00 0.00 0.00 51 1013.7
20260905172614 33 199 0.0 0.0 0.00 0.00 0.00 53 1013.7
20260905172109 32 237 0.0 1.6 0.00 0.00 0.00 52 1014.0
20260905171606 32 211 0.0 0.0 0.00 0.00 0.00 55 1013.8
20260905171101 31 214 0.0 1.6 0.00 0.00 0.00 58 1014.1
20260905170558 30 211 0.0 0.0 0.00 0.00 0.00 57 1014.2
20260905170053 31 209 0.0 1.6 0.00 0.00 0.00 56 1014.2
20260905165548 31 208 0.0 1.6 0.00 0.00 0.00 56 1014.5
20260905165043 31 137 0.0 0.0 0.00 0.00 0.00 56 1014.3
20260905164543 30 159 0.0 0.0 0.00 0.00 0.00 56 1014.6
20260905164038 30 190 0.0 0.0 0.00 0.00 0.00 58 1014.7
20260905163534 29 182 0.0 0.0 0.00 0.00 0.00 61 1014.5
20260905163030 29 194 0.0 1.6 0.00 0.00 0.00 61 1014.9
20260905162526 29 196 0.0 0.0 0.00 0.00 0.00 63 1014.9
20260905162020 30 190 0.0 0.0 0.00 0.00 0.00 60 1014.7
20260905161520 28 213 0.0 0.0 0.00 0.00 0.00 62 1014.8
20260905161018 27 213 0.0 0.0 0.00 0.00 0.00 67 1014.8
20260905160517 27 210 0.0 0.0 0.00 0.00 0.00 69 1014.8
20260905160017 26 210 0.0 0.0 0.00 0.00 0.00 69 1014.7
20260905155512 27 210 0.0 0.0 0.00 0.00 0.00 66 1015.0
20260905155010 27 212 0.0 0.0 0.00 0.00 0.00 65 1014.8
20260905154506 27 194 0.0 0.0 0.00 0.00 0.00 65 1014.8
20260905154001 28 195 0.0 0.0 0.00 0.00 0.00 64 1014.8
20260905153457 28 216 1.6 1.6 0.00 0.00 0.00 61 1014.9
20260905152957 28 190 0.0 1.6 0.00 0.00 0.00 61 1014.8
20260905152456 29 171 0.0 0.0 0.00 0.00 0.00 61 1014.8
20260905151956 29 161 3.2 3.2 0.00 0.00 0.00 60 1015.0
20260905151453 28 196 0.0 0.0 0.00 0.00 0.00 63 1015.0
20260905150953 28 136 0.0 1.6 0.00 0.00 0.00 62 1014.9
20260905150448 28 180 0.0 0.0 0.00 0.00 0.00 64 1014.8
20260905145944 27 180 0.0 1.6 0.00 0.00 0.00 64 1014.8
20260905145439 27 150 0.0 0.0 0.00 0.00 0.00 65 1014.7
20260905144938 27 186 0.0 0.0 0.00 0.00 0.00 65 1014.9
20260905144434 26 189 0.0 0.0 0.00 0.00 0.00 67 1014.8
20260905143932 26 204 0.0 0.0 0.00 0.00 0.00 70 1014.9
20260905143427 26 197 1.6 1.6 0.00 0.00 0.00 68 1014.8
20260905142926 26 102 3.2 3.2 0.00 0.00 0.00 67 1014.9
20260905142425 26 195 0.0 1.6 0.00 0.00 0.00 69 1015.0
20260905141921 26 140 1.6 1.6 0.00 0.00 0.00 69 1015.0
20260905141416 25 141 1.6 1.6 0.00 0.00 0.00 71 1015.0
20260905140912 25 207 0.0 0.0 0.00 0.00 0.00 73 1015.1
20260905140407 24 158 0.0 0.0 0.00 0.00 0.00 73 1015.1
20260905135906 24 189 0.0 0.0 0.00 0.00 0.00 75 1014.9
20260905135401 23 131 0.0 1.6 0.00 0.00 0.00 76 1015.1
20260905134857 23 133 1.6 1.6 0.00 0.00 0.00 76 1015.2
20260905134355 23 152 3.2 3.2 0.00 0.00 0.00 76 1015.2
20260905133850 23 130 1.6 1.6 0.00 0.00 0.00 75 1015.2
20260905133345 23 160 1.6 1.6 0.00 0.00 0.00 76 1015.2
20260905132845 23 153 0.0 0.0 0.00 0.00 0.00 75 1015.2
20260905132341 23 198 0.0 0.0 0.00 0.00 0.00 76 1015.3
20260905131840 23 118 1.6 3.2 0.00 0.00 0.00 75 1015.3
20260905131336 23 191 0.0 0.0 0.00 0.00 0.00 77 1015.3
20260905130831 23 176 1.6 1.6 0.00 0.00 0.00 77 1015.3
20260905130329 23 348 0.0 1.6 0.00 0.00 0.00 77 1015.2
20260905125825 23 141 0.0 1.6 0.00 0.00 0.00 77 1015.2
20260905125320 23 188 0.0 0.0 0.00 0.00 0.00 77 1015.2
20260905124816 23 159 0.0 0.0 0.00 0.00 0.00 78 1015.0
20260905124312 23 205 0.0 1.6 0.00 0.00 0.00 76 1015.2
20260905123807 23 104 1.6 3.2 0.00 0.00 0.00 77 1015.0
20260905123304 23 136 0.0 0.0 0.00 0.00 0.00 78 1015.0
20260905122803 22 110 3.2 3.2 0.00 0.00 0.00 78 1015.1
20260905122306 22 122 0.0 0.0 0.00 0.00 0.00 79 1015.0
20260905121758 22 163 1.6 1.6 0.00 0.00 0.00 79 1014.9
20260905121255 22 143 1.6 1.6 0.00 0.00 0.00 80 1015.0
20260905120753 22 153 1.6 1.6 0.00 0.00 0.00 80 1015.0
20260905120253 22 144 0.0 0.0 0.00 0.00 0.00 81 1014.9
20260905115749 22 130 1.6 1.6 0.00 0.00 0.00 81 1015.0
20260905115248 22 159 0.0 0.0 0.00 0.00 0.00 82 1015.1
20260905114748 22 159 0.0 0.0 0.00 0.00 0.00 81 1014.9
20260905114247 22 161 0.0 0.0 0.00 0.00 0.00 82 1014.9
20260905113746 22 161 0.0 0.0 0.00 0.00 0.00 81 1014.9
20260905113242 22 143 0.0 0.0 0.00 0.00 0.00 81 1014.8
20260905112737 22 141 0.0 1.6 0.00 0.00 0.00 82 1014.6
20260905112232 22 133 0.0 0.0 0.00 0.00 0.00 81 1015.0
20260905111727 22 149 0.0 0.0 0.00 0.00 0.00 82 1014.8
20260905111227 22 167 1.6 1.6 0.00 0.00 0.00 81 1014.9
20260905110726 22 147 1.6 1.6 0.00 0.00 0.00 81 1014.8
20260905110220 22 142 0.0 0.0 0.00 0.00 0.00 81 1014.8
20260905105716 22 151 3.2 4.8 0.00 0.00 0.00 80 1014.9
20260905105214 22 138 0.0 0.0 0.00 0.00 0.00 80 1014.8
20260905104709 23 136 0.0 1.6 0.00 0.00 0.00 80 1014.8
20260905104206 23 199 1.6 1.6 0.00 0.00 0.00 80 1014.9
20260905103700 23 101 4.8 6.4 0.00 0.00 0.00 82 1014.7
20260905103156 23 136 0.0 0.0 0.00 0.00 0.00 82 1014.6
20260905102652 24 108 0.0 1.6 0.00 0.00 0.00 84 1014.7
20260905102148 24 133 1.6 1.6 0.00 0.00 0.00 93 1014.7
20260905101647 23 132 1.6 1.6 0.00 0.00 0.00 94 1014.2
20260905101145 23 154 0.0 0.0 0.00 0.00 0.00 94 1013.6
20260905100642 23 154 0.0 0.0 0.00 0.00 0.00 94 1013.4
20260905100137 23 154 0.0 0.0 0.00 0.00 0.00 94 1013.5
20260905095630 23 154 0.0 0.0 0.00 0.00 0.00 94 1013.5
20260905095125 24 154 0.0 0.0 0.00 0.00 0.00 94 1013.4
20260905094621 24 154 0.0 0.0 0.00 0.00 0.00 94 1013.3
20260905094120 24 154 0.0 0.0 0.00 0.00 0.00 94 1013.3
20260905093621 24 154 0.0 0.0 0.00 0.00 0.00 94 1013.3
20260905093117 24 154 0.0 0.0 0.00 0.00 0.00 94 1013.4
20260905092616 23 154 0.0 0.0 0.00 0.00 0.00 94 1013.3
20260905092112 23 154 0.0 0.0 0.00 0.00 0.00 94 1013.2
20260905091611 23 154 0.0 0.0 0.00 0.00 0.00 94 1013.4
20260905091106 23 154 0.0 0.0 0.00 0.00 0.00 93 1013.4
20260905090606 23 154 0.0 0.0 0.00 0.00 0.00 93 1013.2
20260905085600 23 154 0.0 0.0 0.00 0.00 0.00 93 1013.3
20260905085056 24 154 0.0 0.0 0.00 0.00 0.00 93 1013.1
20260905084556 24 154 0.0 0.0 0.00 0.00 0.00 93 1013.4
20260905084051 24 154 0.0 0.0 0.00 0.00 0.00 93 1013.3
20260905083550 24 154 0.0 0.0 0.00 0.00 0.00 93 1013.2
20260905083047 24 154 0.0 0.0 0.00 0.00 0.00 93 1013.3
20260905082542 24 154 0.0 0.0 0.00 0.00 0.00 92 1013.3
20260905082038 24 154 0.0 0.0 0.00 0.00 0.00 92 1013.2
20260905081537 24 154 0.0 0.0 0.00 0.00 0.00 92 1013.1
20260905081033 24 154 0.0 0.0 0.00 0.00 0.00 92 1013.3
20260905080533 24 154 0.0 0.0 0.00 0.00 0.00 91 1013.3
20260905080028 24 154 0.0 0.0 0.00 0.00 0.00 91 1013.1
20260905075527 25 154 0.0 0.0 0.00 0.00 0.00 91 1012.9
20260905075027 25 154 0.0 0.0 0.00 0.00 0.00 90 1012.8
20260905074521 25 154 0.0 0.0 0.00 0.00 0.00 90 1012.8
20260905074017 25 154 0.0 0.0 0.00 0.00 0.00 90 1012.7
20260905073512 25 154 0.0 0.0 0.00 0.00 0.00 90 1012.6
20260905073008 25 154 0.0 0.0 0.00 0.00 0.00 91 1012.3
20260905072501 24 154 0.0 0.0 0.00 0.00 0.00 91 1012.4
20260905071957 24 154 0.0 0.0 0.00 0.00 0.00 91 1012.5
20260905071454 24 154 0.0 0.0 0.00 0.00 0.00 91 1012.5
20260905070953 24 154 0.0 0.0 0.00 0.00 0.00 91 1012.6
20260905070450 24 154 0.0 0.0 0.00 0.00 0.00 91 1012.6
20260905065949 24 154 0.0 0.0 0.00 0.00 0.00 91 1012.8
20260905065448 24 154 0.0 0.0 0.00 0.00 0.00 91 1012.8
20260905064943 24 154 0.0 0.0 0.00 0.00 0.00 91 1012.7
20260905064443 24 154 0.0 0.0 0.00 0.00 0.00 91 1012.8
20260905063938 25 154 0.0 0.0 0.00 0.00 0.00 91 1012.9
20260905063433 25 154 0.0 0.0 0.00 0.00 0.00 91 1013.0
20260905062929 25 154 0.0 0.0 0.00 0.00 0.00 91 1013.0
20260905062424 25 154 0.0 0.0 0.00 0.00 0.00 90 1013.2
20260905061919 25 154 0.0 0.0 0.00 0.00 0.00 89 1013.4
20260905061418 25 154 0.0 0.0 0.00 0.00 0.00 89 1013.3
20260905060918 25 154 0.0 0.0 0.00 0.00 0.00 89 1013.4
20260905060414 25 154 0.0 0.0 0.00 0.00 0.00 89 1013.4
20260905055913 25 154 0.0 0.0 0.00 0.00 0.00 89 1013.6
20260905055409 25 154 0.0 0.0 0.00 0.00 0.00 89 1013.2
20260905054908 25 154 0.0 0.0 0.00 0.00 0.00 89 1013.6
20260905054405 25 154 0.0 0.0 0.00 0.00 0.00 90 1013.4
20260905053904 25 154 0.0 0.0 0.00 0.00 0.00 90 1013.6
20260905053359 25 154 0.0 0.0 0.00 0.00 0.00 90 1013.6